Погода в Покровке

Россия / Республика Саха (Якутия)     60°45′31″N   131°46′54″E
темп.,
°C
ветер,
м/с
пор.,
м/с
влажн.,
%
обл.,
%
осадки,
мм/ч
давл.,
гПа
погр.,
м
1 марта, пн
пн100:00−28зюз2697100 0.0 1026153
03:00−29зюз2697100 0.1 1026148
06:00−29зюз2497100 0.0 1026112
09:00−27з3793100 0.1 1026566
12:00−25з3687100 0.1 1026948
15:00−24зсз3685100 0.1 10251069
18:00−26зсз2595100 0.1 1026151
21:00−28з2298100 0.1 102679
2 марта, вт
вт200:00−31з1298100 0.0 102619
03:00−33зюз129898 0.0 102719
06:00−34зюз119992 0.0 102719
09:00−32зюз119894 0.0 102773
12:00−28з238998 0.0 1026487
15:00−26зсз238699 0.0 1025724
18:00−28сз1194100 0.0 102519
21:00−30зсз0196100 0.0 102519
3 марта, ср
ср300:00−30зсз0197100 0.0 102419
03:00−31зюз0198100 0.0 102419
06:00−31зюз1198100 0.0 102319
09:00−30зюз119799 0.0 102287
12:00−26зсз119098 0.0 1020426
15:00−25сз128499 0.0 1019709
18:00−29ссз1196100 0.0 101919
21:00−31зсз1198100 0.0 101919
4 марта, чт
чт400:00−31зюз1198100 0.1 101825
03:00−32зюз2598100 0.1 1018182
06:00−32з2697100 0.1 1018334
09:00−31зсз3693100 0.1 1019631
12:00−30зсз3689100 0.1 1019850
15:00−29зсз3685100 0.1 10191103
18:00−31зсз2694100 0.1 1020167
21:00−34з2297100 0.1 102222
5 марта, пт
пт500:00−36з229890 0.0 102325
03:00−37з239790 0.0 102473
06:00−37зюз289698 0.0 1024203
09:00−33зсз489299 0.0 1025567
12:00−30зсз4989100 0.0 1025725
15:00−28зсз4888100 0.0 1025792
18:00−30зсз3993100 0.0 1025496
21:00−30зсз31094100 0.0 1025676